Location: McCall
(45.0000°N, 116.0000°W)
Time: 18:20:24
(UTC-06:00)

Amateur Radio Satellites - All Passes

Search period start: 26 June 2016 17:50
Search period end: 27 June 2016 17:50
Location: McCall, 45.0000°N, 116.0000°W

Satellite Date Start Highest point End Downlink Frequencies (MHz)
Time Altitude Azimuth
KKS-1 26 Jun 17:53:48 17:58:16 76° 286° (WNW) 18:02:42 437.445
ISS 26 Jun 17:54:43 17:56:55 17° 225° (SW) 17:59:07 145.825
SO-50 26 Jun 18:02:20 18:07:15 77° 307° (NW) 18:12:08 436.795
Cubesat XI-IV 26 Jun 18:06:26 18:10:51 27° 63° (ENE) 18:15:18 437.490
ITUPSAT 1 26 Jun 18:08:04 18:09:30 11° 304° (NW) 18:10:57 437.325
BEESAT 26 Jun 18:08:47 18:09:57 11° 304° (NW) 18:11:06 436.000
HORYU 2 26 Jun 18:19:28 18:23:35 38° 262° (W) 18:27:46 437.375
Cosmos 2499 26 Jun 18:23:55 18:28:00 15° 72° (ENE) 18:32:11 435.465 / 435.565
AIST 1 26 Jun 18:24:45 18:29:03 70° 97° (E) 18:33:21
GOMX 1 26 Jun 18:31:18 18:34:55 23° 67° (ENE) 18:38:24 467.674
STARS 26 Jun 18:32:10 18:36:30 59° 287° (WNW) 18:40:49 437.465
HO-68 26 Jun 18:36:17 18:39:27 13° 46° (NE) 18:42:36 435.675
AO-7 26 Jun 18:38:11 18:42:46 16° 273° (W) 18:47:24 29.400- 29.500
CUTE-I 26 Jun 18:40:35 18:45:45 51° 70° (ENE) 18:50:57 437.470
GONETS M04 26 Jun 18:48:51 18:56:21 34° 84° (E) 19:03:51
CUBESAT XI-V 26 Jun 18:49:08 18:53:37 46° 98° (E) 18:58:02 437.345
LilacSat-2 26 Jun 19:04:40 19:08:26 75° 74° (ENE) 19:12:14 437.200
MOZHAYETS 4 26 Jun 19:05:42 19:08:55 19° 298° (WNW) 19:12:07
CUSAT 1 26 Jun 19:06:44 19:10:11 25° 66° (ENE) 19:12:59 437.405
DANDE 26 Jun 19:09:01 19:12:29 17° 57° (ENE) 19:15:26 436.750
NOAA 15 26 Jun 19:16:06 19:21:19 59° 259° (WSW) 19:26:34 137.62
NOAA 18 26 Jun 19:21:57 19:27:22 65° 257° (WSW) 19:32:51 137.9125
BRITE-PL 26 Jun 19:23:07 19:28:07 53° 260° (W) 19:32:46 437.365/2234.400
CUTE 1.7 + AOD 2 26 Jun 19:33:40 19:35:32 13° 60° (ENE) 19:37:24 437.475
DOVE 4 26 Jun 19:41:48 19:46:02 53° 73° (ENE) 19:50:08 437.250
SEEDS 26 Jun 19:42:14 19:43:33 11° 60° (ENE) 19:44:51 437.485
SO-50 26 Jun 19:45:16 19:48:32 17° 327° (NNW) 19:51:46 436.795
Cubesat XI-IV 26 Jun 19:45:34 19:50:41 46° 261° (W) 19:55:51 437.490
RS-15 26 Jun 19:49:15 20:00:24 38° 26° (NNE) 20:11:38 29.354- 29.394
AIST 1 26 Jun 20:05:29 20:07:10 12° 295° (WNW) 20:08:52
GOMX 1 26 Jun 20:08:30 20:12:52 38° 262° (W) 20:17:00 467.674
Cosmos 2499 26 Jun 20:11:10 20:19:21 71° 93° (E) 20:28:06 435.465 / 435.565
HO-68 26 Jun 20:18:44 20:25:41 58° 67° (ENE) 20:32:42 435.675
CUTE-I 26 Jun 20:21:54 20:26:05 23° 267° (W) 20:30:17 437.470
UWE-3 26 Jun 20:23:53 20:24:16 10° 58° (ENE) 20:24:39 435.000/436.395/437.385
AAUSAT CUBESAT 2 26 Jun 20:25:46 20:28:37 18° 64° (ENE) 20:31:29 437.432
AUBIESAT-1 26 Jun 20:26:54 20:28:20 12° 57° (ENE) 20:29:48 437.475
CUBESAT XI-V 26 Jun 20:27:13 20:30:41 21° 296° (WNW) 20:34:08 437.345
GONETS M04 26 Jun 20:44:13 20:52:44 57° 284° (WNW) 21:01:18
CANX-2 26 Jun 20:46:03 20:50:19 77° 77° (ENE) 20:54:39 2200.000
CUSAT 1 26 Jun 20:49:17 20:51:59 18° 275° (W) 20:54:17 437.405
DANDE 26 Jun 20:50:50 20:56:13 59° 265° (W) 21:00:11 436.750
CINEMA 3 26 Jun 20:52:55 20:57:04 89° 79° (E) 21:01:16 145.822/145.860
STRAND 1 26 Jun 20:55:18 21:00:25 60° 101° (E) 21:05:30 437.568
COMPASS 1 26 Jun 20:56:21 21:00:21 44° 72° (ENE) 21:04:24 437.405
M-CUBED/EXP-1 PRIME 26 Jun 21:02:33 21:05:37 38° 66° (ENE) 21:08:41 437.505
CUBEBUG 2 26 Jun 21:04:27 21:08:16 36° 69° (ENE) 21:12:11 437.445
CUTE 1.7 + AOD 2 26 Jun 21:06:30 21:10:46 74° 258° (WSW) 21:15:06 437.475
PRISM 26 Jun 21:13:48 21:15:48 13° 91° (E) 21:17:46 437.425
SEEDS 26 Jun 21:14:20 21:18:36 84° 257° (WSW) 21:22:54 437.485
DOVE 4 26 Jun 21:21:35 21:24:03 15° 269° (W) 21:26:28 437.250
HUMSAT D 26 Jun 21:38:48 21:39:25 10° 59° (ENE) 21:40:03 437.325/437.525
ZACube-1 26 Jun 21:39:46 21:43:41 40° 70° (ENE) 21:47:42 437.345
Oscar 11 26 Jun 21:53:22 21:57:38 62° 74° (ENE) 22:01:58 145.826/435.025
AO-85 26 Jun 21:54:50 21:58:03 16° 108° (ESE) 22:01:13 145.980
UWE-3 26 Jun 21:55:49 22:00:00 89° 77° (ENE) 22:04:18 435.000/436.395/437.385
FUNcube-1 26 Jun 21:58:16 22:02:23 59° 73° (ENE) 22:06:37 145.935
AUBIESAT-1 26 Jun 21:59:20 22:02:31 44° 255° (WSW) 22:05:43 437.475
AAUSAT CUBESAT 2 26 Jun 21:59:44 22:03:46 46° 261° (W) 22:07:50 437.432
RS-15 26 Jun 22:02:27 22:14:52 85° 55° (NE) 22:27:12 29.354- 29.394
Cosmos 2499 26 Jun 22:06:15 22:13:19 29° 296° (WNW) 22:20:44 435.465 / 435.565
HO-68 26 Jun 22:07:39 22:13:46 30° 266° (W) 22:19:57 435.675
CANX-2 26 Jun 22:25:49 22:26:44 11° 273° (W) 22:27:39 2200.000
DELFI C3 26 Jun 22:28:19 22:32:20 67° 74° (ENE) 22:36:22 145.870
COMPASS 1 26 Jun 22:33:17 22:36:08 18° 268° (W) 22:39:01 437.405
STRAND 1 26 Jun 22:35:26 22:39:09 20° 299° (WNW) 22:42:52 437.568
M-CUBED/EXP-1 PRIME 26 Jun 22:39:01 22:40:25 12° 262° (W) 22:41:49 437.505
CUBEBUG 2 26 Jun 22:41:52 22:45:02 21° 267° (W) 22:48:16 437.445
PRISM 26 Jun 22:47:27 22:51:28 56° 288° (WNW) 22:55:27 437.425
GONETS M04 26 Jun 22:48:23 22:51:52 13° 309° (NW) 22:55:23
TIGRISAT 26 Jun 22:56:37 22:58:59 14° 89° (E) 23:01:22 435.000
YUBILEINY 26 Jun 22:59:33 23:04:14 15° 53° (NE) 23:08:55 435.215
UNISAT 6 26 Jun 23:00:38 23:03:31 16° 91° (E) 23:06:25 437.425
HUMSAT D 26 Jun 23:10:10 23:14:20 89° 249° (WSW) 23:18:35 437.325/437.525
DX 1 26 Jun 23:12:03 23:13:01 11° 58° (ENE) 23:14:00 434.975-435.025
ZACube-1 26 Jun 23:17:07 23:20:10 19° 268° (W) 23:23:17 437.345
Oscar 11 26 Jun 23:32:01 23:34:11 14° 271° (W) 23:36:23 145.826/435.025
AO-85 26 Jun 23:32:31 23:37:58 85° 305° (NW) 23:43:12 145.980
CUBEBUG 1 26 Jun 23:34:54 23:38:21 23° 65° (ENE) 23:41:47 437.445
FUNcube-1 26 Jun 23:37:02 23:39:04 13° 271° (W) 23:41:08 145.935
VELOX 1 26 Jun 23:37:40 23:41:10 24° 65° (ENE) 23:44:40 145.980
ANTELSAT 26 Jun 23:39:26 23:43:46 38° 98° (E) 23:48:08 437.575/2403.000
50 SAT 26 Jun 23:40:29 23:43:26 22° 67° (ENE) 23:46:23 437.505
POLYITAN 1 27 Jun 00:00:06 00:00:45 10° 88° (E) 00:01:23 437.675
ESTCUBE 1 27 Jun 00:04:53 00:09:24 67° 74° (ENE) 00:13:56 437.505/2401.250
DELFI C3 27 Jun 00:06:34 00:07:38 11° 272° (W) 00:08:42 145.870
Cosmos 2491 27 Jun 00:13:32 00:18:31 17° 74° (ENE) 00:23:27 435.465 / 435.565
RS-15 27 Jun 00:16:06 00:26:00 30° 258° (WSW) 00:35:51 29.354- 29.394
AISAT 27 Jun 00:17:15 00:21:35 60° 73° (ENE) 00:25:56 437.250
UKube-1 27 Jun 00:28:07 00:32:16 48° 71° (ENE) 00:36:26 .
TIGRISAT 27 Jun 00:31:30 00:36:07 69° 286° (WNW) 00:40:46 435.000
SPROUT 27 Jun 00:33:40 00:37:34 36° 69° (ENE) 00:41:29 437.525
UNISAT 6 27 Jun 00:36:01 00:40:35 59° 287° (WNW) 00:45:11 437.425
DX 1 27 Jun 00:44:09 00:48:31 88° 67° (ENE) 00:52:53 434.975-435.025
SO-50 27 Jun 00:52:12 00:56:14 27° 41° (NE) 01:00:09 436.795
YUBILEINY 27 Jun 00:54:17 01:03:06 65° 78° (ENE) 01:11:52 435.215
BUGSAT 1 27 Jun 01:04:13 01:07:19 20° 94° (E) 01:10:25 437.445
CUBEBUG 1 27 Jun 01:10:24 01:14:26 37° 263° (W) 01:18:29 437.445
VELOX 1 27 Jun 01:13:20 01:17:27 37° 262° (W) 01:21:34 145.980
NANOSAT C BR1 27 Jun 01:13:28 01:17:41 61° 101° (E) 01:21:53 145.865
50 SAT 27 Jun 01:13:47 01:16:59 27° 264° (W) 01:20:14 437.505
AO-85 27 Jun 01:15:16 01:19:10 20° 324° (NW) 01:22:57 145.980
QB50P1 27 Jun 01:15:19 01:19:34 67° 101° (E) 01:23:48 145.935-145.965
ANTELSAT 27 Jun 01:16:31 01:20:18 26° 294° (WNW) 01:24:08 437.575/2403.000
POPSAT HIP 1 27 Jun 01:18:21 01:22:36 71° 102° (ESE) 01:26:52 437.405
Cosmos 2504 27 Jun 01:19:02 01:26:57 34° 67° (ENE) 01:34:37 435.465 / 435.565
QB50P2 27 Jun 01:30:11 01:34:27 80° 286° (WNW) 01:38:44 145.880/145.840
POLYITAN 1 27 Jun 01:32:48 01:37:05 78° 284° (WNW) 01:41:22 437.675
DUCHIFAT 1 27 Jun 01:34:59 01:39:14 84° 284° (WNW) 01:43:29 145.980
SWISSCUBE 27 Jun 01:36:07 01:38:25 14° 58° (ENE) 01:40:44 437.505
ESTCUBE 1 27 Jun 01:44:25 01:46:40 13° 271° (W) 01:48:55 437.505/2401.250
JAS-2 27 Jun 01:49:35 01:54:46 33° 94° (E) 01:59:32 435.910
AISAT 27 Jun 01:56:06 01:58:28 14° 270° (W) 02:00:50 437.250
ITUPSAT 1 27 Jun 02:00:05 02:03:31 20° 62° (ENE) 02:06:57 437.325
BEESAT 27 Jun 02:00:16 02:03:43 20° 62° (ENE) 02:07:11 436.000
TISAT 1 27 Jun 02:00:37 02:04:46 85° 75° (ENE) 02:08:58 437.305
Cosmos 2491 27 Jun 02:05:05 02:13:51 80° 95° (E) 02:22:37 435.465 / 435.565
UKube-1 27 Jun 02:05:44 02:08:35 17° 268° (W) 02:11:26 .
SPROUT 27 Jun 02:10:20 02:13:38 22° 267° (W) 02:16:56 437.525
PCSat 27 Jun 02:14:34 02:16:24 12° 102° (ESE) 02:18:14 145.827
Oscar 19 27 Jun 02:30:04 02:34:29 28° 95° (E) 02:38:52 437.125/150
SO-50 27 Jun 02:32:26 02:36:57 49° 241° (WSW) 02:41:18 436.795
Gurwin Techsat 1B 27 Jun 02:33:33 02:36:17 14° 88° (E) 02:39:01 435.225
BUGSAT 1 27 Jun 02:39:03 02:42:48 36° 290° (WNW) 02:46:34 437.445
NANOSAT C BR1 27 Jun 02:50:35 02:52:57 15° 298° (WNW) 02:55:18 145.865
YUBILEINY 27 Jun 02:51:58 02:59:14 30° 278° (W) 03:06:32 435.215
QB50P1 27 Jun 02:52:43 02:54:50 14° 299° (WNW) 02:56:56 145.935-145.965
POPSAT HIP 1 27 Jun 02:55:54 02:57:50 13° 299° (WNW) 02:59:47 437.405
O/OREOS (USA 219) 27 Jun 03:01:50 03:03:53 13° 98° (E) 03:05:56 437.305
SWISSCUBE 27 Jun 03:10:44 03:15:32 85° 256° (WSW) 03:20:23 437.505
Cosmos 2504 27 Jun 03:12:09 03:20:54 62° 269° (W) 03:29:19 435.465 / 435.565
KKS-1 27 Jun 03:19:22 03:21:51 15° 60° (ENE) 03:24:20 437.445
JAS-2 27 Jun 03:34:39 03:39:55 35° 296° (WNW) 03:44:44 435.910
ITUPSAT 1 27 Jun 03:36:15 03:40:57 55° 259° (W) 03:45:42 437.325
BEESAT 27 Jun 03:36:27 03:41:07 53° 260° (W) 03:45:50 436.000
PCSat 27 Jun 03:53:28 03:58:53 81° 120° (ESE) 04:04:21 145.827
BEESAT 3 27 Jun 03:54:04 03:57:45 40° 119° (ESE) 04:01:28 437.485
STARS 27 Jun 03:55:51 03:58:46 18° 62° (ENE) 04:01:41 437.465
Cosmos 2491 27 Jun 04:04:48 04:11:43 25° 298° (WNW) 04:18:39 435.465 / 435.565
Oscar 19 27 Jun 04:09:09 04:13:54 39° 292° (WNW) 04:18:37 437.125/150
Gurwin Techsat 1B 27 Jun 04:11:32 04:16:53 81° 286° (WNW) 04:22:11 435.225
ITAMSAT 1 27 Jun 04:27:24 04:32:33 54° 100° (E) 04:37:39 435.822/435.867
BEESAT 2 27 Jun 04:28:14 04:32:05 52° 120° (ESE) 04:35:58 435.950
AIST 1 27 Jun 04:30:19 04:33:34 21° 70° (ENE) 04:36:49
MOZHAYETS 4 27 Jun 04:31:00 04:35:34 64° 73° (ENE) 04:40:11
O/OREOS (USA 219) 27 Jun 04:38:12 04:42:41 68° 295° (WNW) 04:47:10 437.305
AO-7 27 Jun 04:40:05 04:47:29 33° 96° (E) 04:54:48 29.400- 29.500
KKS-1 27 Jun 04:53:31 04:57:54 65° 258° (WSW) 05:02:19 437.445
GONETS M04 27 Jun 04:56:12 05:02:02 19° 57° (ENE) 05:07:51
Cosmos 2504 27 Jun 05:09:06 05:12:20 13° 290° (WNW) 05:15:33 435.465 / 435.565
STARS 27 Jun 05:30:30 05:34:44 51° 260° (W) 05:39:01 437.465
BEESAT 3 27 Jun 05:32:19 05:35:34 24° 317° (NW) 05:38:51 437.485
PCSat 27 Jun 05:38:48 05:42:57 22° 320° (NW) 05:47:05 145.827
Gurwin Techsat 1B 27 Jun 05:53:34 05:55:59 13° 305° (NW) 05:58:24 435.225
CUBESAT XI-V 27 Jun 05:53:57 05:58:33 56° 72° (ENE) 06:03:10 437.345
Cosmos 2499 27 Jun 06:00:34 06:08:12 31° 65° (ENE) 06:15:29 435.465 / 435.565
BEESAT 2 27 Jun 06:07:09 06:10:13 21° 320° (NW) 06:13:17 435.950
AIST 1 27 Jun 06:07:23 06:11:17 35° 269° (W) 06:15:09
ITAMSAT 1 27 Jun 06:07:38 06:11:40 23° 298° (WNW) 06:15:40 435.822/435.867
HORYU 2 27 Jun 06:08:09 06:12:14 33° 97° (E) 06:16:18 437.375
MOZHAYETS 4 27 Jun 06:10:36 06:13:10 15° 271° (W) 06:15:46
O/OREOS (USA 219) 27 Jun 06:22:11 06:22:59 10° 316° (NW) 06:23:48 437.305
AO-85 27 Jun 06:23:15 06:27:02 23° 38° (NE) 06:30:33 145.980
AO-7 27 Jun 06:32:27 06:40:41 62° 295° (WNW) 06:48:51 29.400- 29.500
AIST 2 27 Jun 06:33:53 06:37:56 61° 122° (ESE) 06:42:02 435.215
STRAND 1 27 Jun 06:36:39 06:39:39 16° 58° (ENE) 06:42:41 437.568
GONETS M04 27 Jun 06:51:38 07:00:25 81° 81° (E) 07:09:11
CUTE-I 27 Jun 06:56:40 07:00:11 17° 90° (E) 07:03:40 437.470
BRITE-PL 27 Jun 07:25:57 07:29:50 37° 97° (E) 07:33:43 437.365/2234.400
NOAA 15 27 Jun 07:29:13 07:34:15 44° 99° (E) 07:39:15 137.62
CUBESAT XI-V 27 Jun 07:33:13 07:36:17 17° 270° (W) 07:39:21 437.345
DOVE 4 27 Jun 07:40:02 07:41:33 12° 89° (E) 07:43:05 437.250
NOAA 18 27 Jun 07:41:56 07:47:16 46° 100° (E) 07:52:34 137.9125
HORYU 2 27 Jun 07:44:53 07:48:41 27° 294° (WNW) 07:52:27 437.375
Cosmos 2499 27 Jun 07:53:18 08:02:03 67° 267° (W) 08:10:18 435.465 / 435.565
Cubesat XI-IV 27 Jun 08:00:25 08:05:47 62° 102° (ESE) 08:11:07 437.490
AO-85 27 Jun 08:03:24 08:07:53 56° 240° (WSW) 08:11:57 145.980
PRISM 27 Jun 08:05:21 08:07:34 14° 61° (ENE) 08:09:48 437.425
CUSAT 1 27 Jun 08:07:15 08:14:29 43° 93° (E) 08:20:43 437.405
GOMX 1 27 Jun 08:07:30 08:11:34 47° 99° (E) 08:15:44 467.674
LilacSat-2 27 Jun 08:10:10 08:14:04 88° 104° (ESE) 08:17:57 437.200
STRAND 1 27 Jun 08:13:02 08:18:11 80° 256° (WSW) 08:23:22 437.568
AIST 2 27 Jun 08:13:44 08:16:48 20° 321° (NW) 08:19:53 435.215
PHONESAT 2.4 27 Jun 08:14:13 08:15:27 12° 154° (SSE) 08:16:41 2401.200-2431.200
DANDE 27 Jun 08:15:26 08:22:17 29° 86° (E) 08:28:46 436.750
AO-7 27 Jun 08:26:59 08:31:49 17° 318° (NW) 08:36:39 29.400- 29.500
CANX-2 27 Jun 08:31:15 08:32:50 12° 88° (E) 08:34:26 2200.000
CUTE-I 27 Jun 08:35:21 08:40:44 68° 288° (WNW) 08:46:03 437.470
CINEMA 3 27 Jun 08:45:45 08:48:57 19° 92° (E) 08:52:14 145.822/145.860
GONETS M04 27 Jun 08:49:53 08:56:12 23° 282° (WNW) 09:02:32
CUTE 1.7 + AOD 2 27 Jun 08:50:32 08:53:21 17° 91° (E) 08:56:08 437.475
SEEDS 27 Jun 08:57:43 09:00:04 14° 90° (E) 09:02:25 437.485
BRITE-PL 27 Jun 09:05:05 09:08:09 20° 295° (WNW) 09:11:11 437.365/2234.400
NOAA 15 27 Jun 09:09:27 09:13:48 27° 297° (WNW) 09:18:08 137.62
DOVE 4 27 Jun 09:15:26 09:19:42 71° 285° (WNW) 09:24:09 437.250
NOAA 18 27 Jun 09:23:01 09:27:42 29° 297° (WNW) 09:32:23 137.9125
HO-68 27 Jun 09:31:38 09:38:37 50° 100° (E) 09:45:34 435.675
PRISM 27 Jun 09:38:18 09:42:25 61° 258° (WSW) 09:46:33 437.425
AAUSAT CUBESAT 2 27 Jun 09:40:25 09:43:47 23° 94° (E) 09:47:07 437.432
Cubesat XI-IV 27 Jun 09:41:26 09:45:23 21° 300° (WNW) 09:49:21 437.490
UWE-3 27 Jun 09:44:09 09:47:10 17° 91° (E) 09:50:11 435.000/436.395/437.385
FUNcube-1 27 Jun 09:46:37 09:47:45 11° 87° (E) 09:48:53 145.935
GOMX 1 27 Jun 09:46:39 09:49:22 17° 296° (WNW) 09:52:08 467.674
PHONESAT 2.4 27 Jun 09:48:46 09:51:30 29° 170° (S) 09:54:14 2401.200-2431.200
CUSAT 1 27 Jun 09:49:17 09:56:34 42° 287° (WNW) 10:02:47 437.405
Cosmos 2499 27 Jun 09:49:30 09:53:19 14° 289° (WNW) 09:57:04 435.465 / 435.565
DANDE 27 Jun 09:56:13 10:04:38 71° 282° (WNW) 10:12:26 436.750
TIGRISAT 27 Jun 09:57:37 10:00:05 15° 61° (ENE) 10:02:35 435.000
STRAND 1 27 Jun 09:57:51 09:58:10 10° 274° (W) 09:58:29 437.568
UNISAT 6 27 Jun 10:01:47 10:04:38 17° 62° (ENE) 10:07:32 437.425
CANX-2 27 Jun 10:04:54 10:09:11 69° 285° (WNW) 10:13:26 2200.000
COMPASS 1 27 Jun 10:12:27 10:16:39 65° 101° (E) 10:20:47 437.405
M-CUBED/EXP-1 PRIME 27 Jun 10:13:18 10:16:27 23° 102° (ESE) 10:19:46 437.505
CUTE-I 27 Jun 10:18:11 10:19:47 11° 307° (NW) 10:21:23 437.470
CINEMA 3 27 Jun 10:22:00 10:26:19 49° 288° (WNW) 10:30:49 145.822/145.860
CUTE 1.7 + AOD 2 27 Jun 10:25:19 10:29:27 48° 288° (WNW) 10:33:33 437.475
CUBEBUG 2 27 Jun 10:28:50 10:33:24 67° 101° (ESE) 10:38:04 437.445
SEEDS 27 Jun 10:31:57 10:36:07 55° 287° (WNW) 10:40:15 437.485
ISS 27 Jun 10:34:19 10:37:29 49° 144° (SE) 10:40:39 145.825
ANTELSAT 27 Jun 10:40:12 10:44:13 40° 70° (ENE) 10:48:21 437.575/2403.000
QB50P2 27 Jun 10:52:18 10:53:25 11° 59° (ENE) 10:54:32 145.880/145.840
HUMSAT D 27 Jun 10:53:11 10:55:20 13° 89° (E) 10:57:29 437.325/437.525
POLYITAN 1 27 Jun 10:54:48 10:56:02 11° 59° (ENE) 10:57:16 437.675
PCSat 27 Jun 10:56:48 11:00:51 21° 39° (NE) 11:04:52 145.827
DUCHIFAT 1 27 Jun 10:57:09 10:57:35 10° 58° (ENE) 10:58:02 145.980
ZACube-1 27 Jun 11:01:36 11:06:08 68° 101° (E) 11:10:42 437.345
BEESAT 2 27 Jun 11:08:23 11:09:41 11° 31° (NNE) 11:11:00 435.950
AUBIESAT-1 27 Jun 11:09:07 11:12:59 82° 108° (ESE) 11:17:08 437.475
Oscar 11 27 Jun 11:14:31 11:18:55 84° 282° (WNW) 11:23:15 145.826/435.025
AAUSAT CUBESAT 2 27 Jun 11:15:34 11:19:20 33° 291° (WNW) 11:23:03 437.432
UWE-3 27 Jun 11:19:27 11:23:55 55° 287° (WNW) 11:28:27 435.000/436.395/437.385
HO-68 27 Jun 11:19:42 11:26:09 37° 299° (WNW) 11:32:34 435.675
FUNcube-1 27 Jun 11:20:00 11:24:33 83° 284° (WNW) 11:29:07 145.935
PHONESAT 2.4 27 Jun 11:24:58 11:27:46 32° 186° (S) 11:30:34 2401.200-2431.200
TIGRISAT 27 Jun 11:32:02 11:36:16 61° 259° (W) 11:40:37 435.000
UNISAT 6 27 Jun 11:36:45 11:40:57 51° 260° (W) 11:45:16 437.425
DELFI C3 27 Jun 11:38:45 11:42:48 86° 105° (ESE) 11:46:46 145.870
DANDE 27 Jun 11:43:22 11:48:40 18° 301° (WNW) 11:53:40 436.750
M-CUBED/EXP-1 PRIME 27 Jun 11:47:38 11:51:00 31° 296° (WNW) 11:54:37 437.505
COMPASS 1 27 Jun 11:49:36 11:51:42 14° 299° (WNW) 11:53:47 437.405
BUGSAT 1 27 Jun 11:56:15 11:59:06 19° 65° (ENE) 12:01:58 437.445
ESTCUBE 1 27 Jun 11:57:29 11:59:15 12° 88° (E) 12:01:02 437.505/2401.250
JAS-2 27 Jun 12:03:00 12:08:54 26° 60° (ENE) 12:14:24 435.910
CUBEBUG 2 27 Jun 12:06:50 12:09:33 16° 298° (WNW) 12:12:16 437.445
YUBILEINY 27 Jun 12:06:56 12:10:48 14° 72° (ENE) 12:14:39 435.215
NANOSAT C BR1 27 Jun 12:07:15 12:11:20 57° 73° (ENE) 12:15:27 145.865
BEESAT 3 27 Jun 12:09:20 12:13:11 46° 50° (NE) 12:16:59 437.485
QB50P1 27 Jun 12:09:23 12:13:31 63° 73° (ENE) 12:17:41 145.935-145.965
ISS 27 Jun 12:10:58 12:14:01 36° 343° (NNW) 12:17:05 145.825
POPSAT HIP 1 27 Jun 12:12:27 12:16:36 67° 74° (ENE) 12:20:47 437.405
Cosmos 2491 27 Jun 12:13:12 12:21:27 44° 71° (ENE) 12:29:38 435.465 / 435.565
ANTELSAT 27 Jun 12:17:54 12:21:08 20° 268° (W) 12:24:25 437.575/2403.000
QB50P2 27 Jun 12:24:22 12:28:34 84° 257° (WSW) 12:32:49 145.880/145.840
POLYITAN 1 27 Jun 12:27:00 12:31:11 82° 257° (WSW) 12:35:25 437.675
HUMSAT D 27 Jun 12:27:05 12:31:22 62° 286° (WNW) 12:35:37 437.325/437.525
RS-15 27 Jun 12:28:15 12:38:44 45° 109° (ESE) 12:49:46 29.354- 29.394
DUCHIFAT 1 27 Jun 12:28:25 12:32:36 89° 266° (W) 12:36:48 145.980
DX 1 27 Jun 12:32:06 12:34:06 13° 90° (E) 12:36:06 434.975-435.025
ZACube-1 27 Jun 12:39:21 12:41:54 15° 299° (WNW) 12:44:29 437.345
PCSat 27 Jun 12:39:30 12:44:58 85° 241° (WSW) 12:50:23 145.827
50 SAT 27 Jun 12:40:54 12:43:44 20° 94° (E) 12:46:32 437.505
BEESAT 2 27 Jun 12:44:24 12:48:22 59° 51° (NE) 12:52:19 435.950
AUBIESAT-1 27 Jun 12:45:52 12:47:01 11° 304° (NW) 12:48:11 437.475
Oscar 11 27 Jun 12:53:58 12:54:17 10° 302° (WNW) 12:54:36 145.826/435.025
CUBEBUG 1 27 Jun 12:56:46 13:00:41 33° 97° (E) 13:04:34 437.445
FUNcube-1 27 Jun 12:59:00 13:00:04 11° 302° (WNW) 13:01:07 145.935
VELOX 1 27 Jun 13:01:13 13:05:13 33° 97° (E) 13:09:12 145.980
PHONESAT 2.4 27 Jun 13:01:56 13:03:54 16° 202° (SSW) 13:05:52 2401.200-2431.200
O/OREOS (USA 219) 27 Jun 13:07:09 13:11:19 36° 59° (ENE) 13:15:28 437.305
AIST 2 27 Jun 13:16:11 13:18:20 14° 33° (NNE) 13:20:29 435.215
BUGSAT 1 27 Jun 13:30:28 13:34:14 39° 262° (W) 13:38:01 437.445
ESTCUBE 1 27 Jun 13:32:05 13:36:36 73° 286° (WNW) 13:41:03 437.505/2401.250
AISAT 27 Jun 13:41:39 13:46:04 87° 283° (WNW) 13:50:27 437.250
TISAT 1 27 Jun 13:44:46 13:46:05 11° 89° (E) 13:47:23 437.305
NANOSAT C BR1 27 Jun 13:45:17 13:47:27 14° 270° (W) 13:49:36 145.865
JAS-2 27 Jun 13:45:43 13:53:24 74° 258° (WSW) 14:00:25 435.910
BEESAT 3 27 Jun 13:47:46 13:50:33 18° 248° (WSW) 13:53:18 437.485
QB50P1 27 Jun 13:47:57 13:49:44 12° 271° (W) 13:51:30 145.935-145.965
ISS 27 Jun 13:48:17 13:51:03 24° 2° (N) 13:53:49 145.825
Oscar 19 27 Jun 13:48:36 13:53:34 51° 70° (ENE) 13:58:32 437.125/150
UKube-1 27 Jun 13:48:56 13:53:15 67° 102° (ESE) 13:57:32 .
POPSAT HIP 1 27 Jun 13:51:22 13:52:51 12° 271° (W) 13:54:20 437.405
SPROUT 27 Jun 13:53:01 13:57:14 54° 100° (E) 14:01:26 437.525
AO-7 27 Jun 13:53:44 13:57:57 15° 40° (NE) 14:02:10 29.400- 29.500
Gurwin Techsat 1B 27 Jun 13:55:50 14:00:18 28° 64° (ENE) 14:04:48 435.225
YUBILEINY 27 Jun 13:57:13 14:05:49 69° 94° (E) 14:14:31 435.215
Cosmos 2504 27 Jun 14:01:03 14:07:13 24° 78° (ENE) 14:13:39 435.465 / 435.565
DX 1 27 Jun 14:06:25 14:10:44 64° 287° (WNW) 14:15:01 434.975-435.025
Cosmos 2491 27 Jun 14:10:12 14:18:18 45° 273° (W) 14:26:23 435.465 / 435.565
ITAMSAT 1 27 Jun 14:10:43 14:13:42 16° 57° (ENE) 14:16:42 435.822/435.867
50 SAT 27 Jun 14:14:12 14:17:27 29° 291° (WNW) 14:20:39 437.505
BEESAT 2 27 Jun 14:23:31 14:25:45 15° 249° (WSW) 14:27:59 435.950
PCSat 27 Jun 14:25:15 14:27:30 13° 258° (WSW) 14:29:45 145.827
CUBEBUG 1 27 Jun 14:33:17 14:36:50 25° 294° (WNW) 14:40:22 437.445
VELOX 1 27 Jun 14:37:56 14:41:34 26° 294° (WNW) 14:45:11 145.980
RS-15 27 Jun 14:39:22 14:50:48 63° 314° (NW) 15:02:55 29.354- 29.394
O/OREOS (USA 219) 27 Jun 14:46:53 14:50:32 25° 257° (WSW) 14:54:12 437.305
AIST 2 27 Jun 14:53:23 14:57:33 74° 52° (NE) 15:01:43 435.215
SWISSCUBE 27 Jun 15:09:41 15:13:20 21° 93° (E) 15:16:57 437.505
TISAT 1 27 Jun 15:18:00 15:22:12 70° 285° (WNW) 15:26:23 437.305
AISAT 27 Jun 15:20:51 15:21:50 11° 302° (WNW) 15:22:47 437.250
ISS 27 Jun 15:24:50 15:28:01 47° 23° (NNE) 15:31:12 145.825
UKube-1 27 Jun 15:26:32 15:28:46 14° 300° (WNW) 15:31:00 .
Oscar 19 27 Jun 15:29:13 15:33:10 22° 267° (W) 15:37:07 437.125/150
SPROUT 27 Jun 15:30:05 15:32:46 16° 297° (WNW) 15:35:27 437.525
BEESAT 27 Jun 15:34:38 15:38:59 33° 97° (E) 15:43:17 436.000
ITUPSAT 1 27 Jun 15:34:52 15:39:12 32° 96° (E) 15:43:30 437.325
Gurwin Techsat 1B 27 Jun 15:35:02 15:40:03 43° 262° (W) 15:45:08 435.225
JAS-2 27 Jun 15:35:28 15:39:18 14° 274° (W) 15:43:00 435.910
AO-7 27 Jun 15:40:53 15:48:54 55° 63° (ENE) 15:56:59 29.400- 29.500
ITAMSAT 1 27 Jun 15:47:15 15:52:29 84° 255° (WSW) 15:57:45 435.822/435.867
Cosmos 2504 27 Jun 15:51:27 15:59:35 77° 280° (W) 16:08:20 435.465 / 435.565
YUBILEINY 27 Jun 15:56:05 16:03:24 29° 295° (WNW) 16:10:47 435.215
MOZHAYETS 4 27 Jun 16:25:46 16:27:59 13° 88° (E) 16:30:11
AIST 2 27 Jun 16:33:44 16:35:27 12° 251° (WSW) 16:37:12 435.215
KKS-1 27 Jun 16:43:06 16:46:26 20° 93° (E) 16:49:44 437.445
SWISSCUBE 27 Jun 16:46:46 16:51:22 47° 290° (WNW) 16:55:56 437.505
SO-50 27 Jun 16:48:02 16:52:26 35° 116° (ESE) 16:56:51 436.795
RS-15 27 Jun 16:56:04 17:06:20 32° 345° (NNW) 17:16:57 29.354- 29.394
ISS 27 Jun 17:01:27 17:04:22 30° 220° (SW) 17:07:15 145.825
AIST 1 27 Jun 17:04:01 17:05:18 11° 83° (E) 17:06:35
HORYU 2 27 Jun 17:07:54 17:12:01 39° 69° (ENE) 17:16:10 437.375
BEESAT 27 Jun 17:12:30 17:16:41 30° 294° (WNW) 17:20:51 436.000
ITUPSAT 1 27 Jun 17:12:45 17:16:59 31° 294° (WNW) 17:21:10 437.325
NOAA 15 27 Jun 17:14:48 17:17:26 14° 56° (NE) 17:20:02 137.62
STARS 27 Jun 17:18:11 17:21:46 24° 95° (E) 17:25:21 437.465
ITAMSAT 1 27 Jun 17:31:24 17:32:44 11° 273° (W) 17:34:04 435.822/435.867
NOAA 18 27 Jun 17:32:22 17:35:47 17° 57° (ENE) 17:39:14 137.9125
AO-7 27 Jun 17:34:19 17:41:55 38° 262° (W) 17:49:36 29.400- 29.500
